Regional Weather Roundup
Issued by NWS

Home | Current Version | Previous Version | Text Only | Print | Product List | Glossary Off
Versions: 1 2 3 4 5 6 7 8 9 10 11 12 13 14 15 16 17 18 19 20 21 22 23 24 25 26 27 28 29 30 31 32 33 34 35 36 37 38 39 40 41 42 43 44 45 46 47 48 49 50

000
ASUS43 KDMX 220307
RWRIA

WEATHER ROUNDUP FOR IOWA
NATIONAL WEATHER SERVICE DES MOINES IA
1000 PM CDT MON JUL 21 2014

NOTE: "FAIR" INDICATES FEW OR NO CLOUDS BELOW 12,000 FEET WITH NO
SIGNIFICANT WEATHER AND/OR OBSTRUCTIONS TO VISIBILITY.

* - THESE STATIONS ARE NOT NWS STATIONS...THUS NOT UNDER NWS
QUALITY CONTROL.  THEY ALSO DO NOT REPORT WEATHER SUCH
AS PRECIPITATION OR FOG.

IAZ001>003-012>014-020>022-031>034-043>046-220400-
   NORTHWEST IOWA

CITY           SKY/WX    TMP DP  RH WIND       PRES   REMARKS
CARROLL *      CLEAR     81  77  89 S6        29.87S HX  88
CHEROKEE *     MOCLDY    81  79  94 S5        29.83R HX  89
DENISON *      CLEAR     82  79  89 S14G21    29.83S HX  93
LE MARS *      CLEAR     82  77  83 S7        29.81S HX  91
ORANGE CITY *  CLEAR     82  77  83 S6        29.82R HX  91
SHELDON *      CLEAR     81  77  89 SE9       29.81R HX  88
SIOUX CITY     PTCLDY    85  78  80 SE6       29.80R HX  96
SPENCER        MOCLDY    82  77  84 SE10      29.83F HX  90
STORM LAKE *   CLEAR     81  81 100 S10       29.86R HX  91
$$

IAZ055>058-069>071-079>083-090>094-220400-
   SOUTHWEST IOWA

CITY           SKY/WX    TMP DP  RH WIND       PRES   REMARKS
ATLANTIC *     CLEAR     82  77  83 S8        29.88R HX  91
AUDUBON *      CLEAR     84  79  84 S7        29.90R HX  96
CLARINDA *     CLEAR     82  75  78 S9G16     29.91R HX  89
COUNCIL BLFS *   N/A     82  81  94 S9        29.86R HX  95
CRESTON *      CLEAR     81  77  89 SE8G15    29.93R HX  88
HARLAN  *      CLEAR     82  79  89 S7        29.91R HX  93
LAMONI         CLEAR     81  75  82 S9        29.95R HX  87
RED OAK *      CLEAR     84  75  74 S10       29.88R HX  92
SHENANDOAH *   CLEAR     84  75  74 S13G18    29.88R HX  92
$$

IAZ047>049-059>061-072>074-084-220400-
   CENTRAL IOWA

CITY           SKY/WX    TMP DP  RH WIND       PRES   REMARKS
AMES           CLEAR     82  76  81 S9        29.90R HX  89
ANKENY *       CLEAR     82  77  83 S9        29.91R HX  91
CHARITON *     PTCLDY    81  75  83 S8        29.95R HX  86
DES MOINES     CLEAR     85  76  74 S13       29.91R HX  94
GRINNELL*      CLOUDY    79  73  83 SE9       29.97R HX  82
KNOXVILLE *    CLEAR     82  75  78 S8G15     29.94R HX  89
MARSHALLTOWN   CLOUDY    83  75  77 S14       29.93R HX  90
PELLA *        CLEAR     81  75  83 S8        29.96R HX  86
PERRY *          N/A     81  77  89 SE7       29.90R HX  88
$$

IAZ004>006-015-016-023>025-035-036-220400-
   NORTH CENTRAL IOWA

CITY           SKY/WX    TMP DP  RH WIND       PRES   REMARKS
ALGONA *       CLEAR     82  79  89 S13G22    29.86S HX  93
CLARION *      MOCLDY    81  77  89 SE8       29.89R HX  88
ESTHERVILLE    MOCLDY    80  76  87 S12       29.84S HX  86
FORT DODGE *   PTCLDY    82  75  78 S8        29.88S HX  89
MASON CITY     PTCLDY    81  77  88 SE12      29.91S HX  88
FOREST CITY *  MOCLDY    81  77  89 SE12      29.89S HX  88
IOWA FALLS *   MOCLDY    81  75  83 S13       29.92F HX  86
$$

IAZ007>011-017>019-026>030-037>042-050>054-066-220400-
   NORTHEAST IOWA

CITY           SKY/WX    TMP DP  RH WIND       PRES   REMARKS
CEDAR RAPIDS   CLEAR     78  69  73 S9        29.97R HX  80
CHARLES CITY * CLOUDY    81  73  78 SE13      29.93S HX  85
DECORAH *      CLOUDY    77  72  83 S10G17    29.94S
DUBUQUE        CLEAR     75  69  81 S13       30.00R
MONTICELLO *   CLEAR     75  70  83 SE7       29.98S
OELWEIN *      CLEAR     77  73  88 S9        29.97S
WATERLOO       MOCLDY    81  71  71 S13       29.93R HX  85
$$

IAZ064-065-067-068-078-220400-
   EAST CENTRAL IOWA

CITY           SKY/WX    TMP DP  RH WIND       PRES   REMARKS
DAVENPORT      CLEAR     78  68  71 S14       30.02R HX  80
IOWA CITY      CLEAR     77  71  82 SE8       29.99R
MT. PLEASANT * CLEAR     77  68  73 SE8       30.00R
MUSCATINE *    CLEAR     79  72  78 SE8       30.00R HX  82
QUAD CITIES    CLEAR     76  69  79 SE6       30.01R
$$

IAZ062-063-075>077-085>089-095>099-220400-
   SOUTHEAST IOWA

CITY           SKY/WX    TMP DP  RH WIND       PRES   REMARKS
BURLINGTON     CLEAR     78  70  76 S9        30.01R HX  80
FAIRFIELD *    CLEAR     79  70  73 S12       29.99R HX  81
FORT MADISON * CLEAR     79  72  78 SE10      30.02S HX  82
KEOKUK *       CLEAR     79  70  73 SE8       30.00S HX  81
OSKALOOSA *      N/A     77  72  83 S9        29.97S
CENTERVILLE *  CLEAR     79  77  94 SE7       29.99R HX  83
OTTUMWA        CLEAR     79  70  74 S10       29.97R HX  82
WASHINGTON *   CLEAR     77  70  78 S10       29.99R
$$

ABBREVIATIONS USED IN REMARKS
   TC - TEMPERATURES IN CELSIUS
  WCI - WIND CHILL INDEX
   HX - HEAT INDEX
  VSB - VISIBILITY
$$




USA.gov is the U.S. government's official web portal to all federal, state and local government web resources and services.